Regional Weather Roundup
Issued by NWS

Home | Current Version | Previous Version | Graphics & Text | Print | Product List | Glossary On
Versions: 1 2 3 4 5 6 7 8 9 10 11 12 13 14 15 16 17 18 19 20 21 22 23 24 25 26 27 28 29 30 31 32 33 34 35 36 37 38 39 40 41 42 43 44 45 46 47 48 49 50
000
ASUS45 KPSR 291200
RWRAZ

PRELIMINARY ARIZONA REGIONAL HOURLY WEATHER ROUNDUP
NATIONAL WEATHER SERVICE PHOENIX AZ
500 AM MST FRI AUG 29 2014

NOTE: FAIR INDICATES FEW OR NO CLOUDS BELOW 12,000 FEET WITH NO
SIGNIFICANT WEATHER AND/OR OBSTRUCTIONS TO VISIBILITY.

AZZ001>003-036-291300-
NORTHWEST ARIZONA

CITY           SKY/WX    TMP DP  RH WIND       PRES   REMARKS
KINGMAN        CLEAR     70  34  26 SE10      30.01R
6HR MIN TEMP:  61; 6HR MAX TEMP:  72;

$$

AZZ004>008-015-016-018-291300-
NORTH CENTRAL ARIZONA

CITY           SKY/WX    TMP DP  RH WIND       PRES   REMARKS
GRAND CANYON     N/A    N/A N/A N/A MISG        N/A
WILLIAMS       CLEAR     46  39  76 S9        30.31S
PRESCOTT       CLEAR     57  44  62 S3        30.14S
6HR MIN TEMP:  57; 6HR MAX TEMP:  65;

FLAGSTAFF      CLEAR     43  39  86 CALM      30.28S
6HR MIN TEMP:  42; 6HR MAX TEMP:  51;

PAYSON         CLEAR     66  37  34 N6        30.14F
PAGE           CLEAR     67  42  40 E5        30.09S
6HR MIN TEMP:  67; 6HR MAX TEMP:  75;

$$

AZZ009>014-017-291300-
NORTHEAST ARIZONA

CITY           SKY/WX    TMP DP  RH WIND       PRES   REMARKS
WINSLOW        NOT AVBL
SAINT JOHNS    CLEAR     55  48  77 CALM      30.18S
6HR MIN TEMP:  55; 6HR MAX TEMP:  63;

WINDOW ROCK    CLEAR     43  37  79 CALM      30.26
6HR MIN TEMP:  42; 6HR MAX TEMP:  62;

$$

AZZ023-291300-
GREATER PHOENIX AREA

CITY           SKY/WX    TMP DP  RH WIND       PRES   REMARKS
PHOENIX        CLEAR     85  50  29 SE7       29.79S
6HR MIN TEMP:  84; 6HR MAX TEMP:  97;

DEER VALLEY    CLEAR     83  46  27 NE5       29.82S
6HR MIN TEMP:  81; 6HR MAX TEMP:  89;

SCOTTSDALE     CLEAR     79  54  41 SW3       29.83S
6HR MIN TEMP:  79; 6HR MAX TEMP:  94;

MESA-GATEWAY   CLEAR     75  52  43 SE8       29.84S
$$

AZZ027-028-291300-
SOUTHWEST MARICOPA COUNTY AND PINAL COUNTY

CITY           SKY/WX    TMP DP  RH WIND       PRES   REMARKS
CASA GRANDE    CLEAR     73  45  35 CALM      29.84S
6HR MIN TEMP:  72; 6HR MAX TEMP:  84;

$$

AZZ503-504-507>509-291300-
SOUTHEAST ARIZONA

CITY           SKY/WX    TMP DP  RH WIND       PRES   REMARKS
TUCSON         CLEAR     73  52  47 SE7       29.94S
6HR MIN TEMP:  73; 6HR MAX TEMP:  85;

NOGALES        CLEAR     61  52  72 CALM      30.02S
6HR MIN TEMP:  60; 6HR MAX TEMP:  68;

SIERRA VISTA   CLEAR     70  45  40 SW8       30.07F
SAFFORD        CLEAR     65  49  56 SE5       29.96R
6HR MIN TEMP:  65; 6HR MAX TEMP:  79;

$$

AZZ020-021-025-026-031-291300-
SOUTHWEST ARIZONA

CITY           SKY/WX    TMP DP  RH WIND       PRES   REMARKS
YUMA           NOT AVBL
$$

CAZ031-033-041-043-047-048-061-291300-
SOUTHERN CALIFORNIA

CITY           SKY/WX    TMP DP  RH WIND       PRES   REMARKS
DOWNTOWN L.A.  CLEAR     66  61  84 CALM      29.86S
6HR MIN TEMP:  66; 6HR MAX TEMP:  73;

L.A. AIRPORT   CLEAR     67  62  84 CALM      29.87S
6HR MIN TEMP:  67; 6HR MAX TEMP:  72;

SAN DIEGO      PTCLDY    71  66  84 CALM      29.88S
6HR MIN TEMP:  71; 6HR MAX TEMP:  74;

BURBANK        CLEAR     69  48  47 CALM      29.87S
6HR MIN TEMP:  69; 6HR MAX TEMP:  80;

ONTARIO        CLEAR     72  48  42 CALM      29.88S
6HR MIN TEMP:  70; 6HR MAX TEMP:  80;

RIVERSIDE      CLEAR     69  51  52 CALM      29.88F
6HR MIN TEMP:  69; 6HR MAX TEMP:  79;

PALM SPRINGS   CLEAR     83  53  35 CALM      29.79S
6HR MIN TEMP:  82; 6HR MAX TEMP:  96;

EL CENTRO NAS  CLEAR     80  47  31 NW6       29.73S
6HR MIN TEMP:  79; 6HR MAX TEMP:  89;

IMPERIAL       CLEAR     81  51  35 W8        29.72S
6HR MIN TEMP:  79; 6HR MAX TEMP:  87;

BLYTHE         CLEAR     81  44  27 NW6       29.75R
6HR MIN TEMP:  79; 6HR MAX TEMP:  96;

$$

NVZ020-UTZ003-291300-
SOUTHERN NEVADA-UTAH

CITY           SKY/WX    TMP DP  RH WIND       PRES   REMARKS
LAS VEGAS      NOT AVBL
SALT LAKE CITY CLEAR     62  47  57 SE9       30.08R
6HR MIN TEMP:  62; 6HR MAX TEMP:  68;

$$

NMZ009-TXZ055-291300-
NEW MEXICO-WEST TEXAS

CITY           SKY/WX    TMP DP  RH WIND       PRES   REMARKS
ALBUQUERQUE    CLEAR     63  44  50 NE6       30.16R
6HR MIN TEMP:  62; 6HR MAX TEMP:  73;

EL PASO        PTCLDY    71  52  50 N7        29.99R
6HR MIN TEMP:  70; 6HR MAX TEMP:  82;

$$


........................KEY........................
SKY/WX - SKY CONDITION/WEATHER
TMP    - TEMPERATURE IN FAHRENHEIT
DP     - DEW POINT IN FAHRENHEIT
RH     - RELATIVE HUMIDITY IN PERCENT
WIND   - DIRECTION AND SPEED IN MILES PER HOUR (MPH)
VRB    - VARIABLE WIND DIRECTION
PRES   - MEAN SEA LEVEL PRESSURE IN INCHES OF MERCURY
         F - FALLING PRESSURE   R - RISING PRESSURE
         S - STEADY PRESSURE
VSB    - VISIBILITY IN MILES
HX     - HEAT INDEX IN FAHRENHEIT
WCI    - WIND CHILL INDEX IN FAHRENHEIT
TC     - TEMPERATURE IN CELSIUS WHICH IS ALSO KNOWN AS
         TEMPERATURE IN CENTIGRADE
AFB    - AIR FORCE BASE
         LUKE AFB IS LUKE AIR FORCE BASE
         DAVIS-MONTHAN IS DAVIS-MONTHAN AIR FORCE BASE
NAS    - NAVAL AIR STATION
         EL CENTRO NAS IS EL CENTRO NAVAL AIR STATION
N/A    - NOT AVAILABLE


USA.gov is the U.S. government's official web portal to all federal, state and local government web resources and services.